Location: Eaton
(41.3139°N, 82.0207°W)
Time: 12:10:06
(UTC+00:00)

Meteor 1-4 Rocket - Pass Details

Date: 17 June 2021
Orbit: 447 x 499 km, 81.2° (Epoch: 30 July)

Event Time Altitude Azimuth Distance (km) Brightness Sun altitude
Rises 05:57:11 0° 342° (NNW) 2,482 7.2 -25.0°
Reaches altitude 10° 05:59:21 10° 335° (NNW) 1,597 5.9 -24.9°
Enters shadow 06:01:14 26° 314° (NW) 927 4.3 -24.9°
